Regional Weather Roundup
Issued by NWS Wakefield, VA

Home | Current Version | Previous Version | Text Only | Print | Product List | Glossary On
Versions: 1 2 3 4 5 6 7 8 9 10 11 12 13 14 15 16 17 18 19 20 21 22 23 24 25 26 27
000
ASUS41 KAKQ 252115
RWRAKQ

REGIONAL WEATHER ROUNDUP
NATIONAL WEATHER SERVICE WAKEFIELD VA
500 PM EDT SUN SEP 25 2016

Note: "fair" indicates few or no clouds below 12,000 feet with no
significant weather and/or obstructions to visibility. * = Denotes
station may not report precipitation (e.g., rain,snow,etc.),
thunder or fog.

VAZ042-051-052>054-056-252200-
NORTHERN VIRGINIA

CITY           SKY/WX    TMP DP  RH WIND       PRES   REMARKS
WASH NATIONAL  MOSUNNY   74  48  39 S8        30.13F
DULLES         MOSUNNY   70  47  43 S6        30.14F
FORT BELVOIR   CLOUDY    70  50  49 S5        30.14F
QUANTICO         N/A     70  54  56 W5        30.15F
FREDERICKSBRG* MOSUNNY   70  56  63 CALM      30.14F
STAFFORD*      CLOUDY    67  55  64 CALM      30.18F
WARRENTON      CLOUDY    69  47  44 CALM      30.15F
CULPEPER*      CLOUDY    67  53  61 CALM      30.16F
MANASSAS*      CLOUDY    70  52  52 SW5       30.15F
LEESBURG*      MOSUNNY   70  52  52 SW7       30.15S
WINCHESTER     SUNNY     68  52  56 S9        30.14F
FRONT ROYAL*   MOCLDY    66  54  63 S3        30.13F
LURAY*         CLOUDY    64  54  68 CALM      30.15S
$$

VAZ048-049-060>072-079>083-252200-
CENTRAL AND SOUTH CENTRAL VIRGINIA

CITY           SKY/WX    TMP DP  RH WIND       PRES   REMARKS
RICHMOND       CLOUDY    70  57  63 E5        30.14S
CHESTERFIELD*  CLOUDY    72  48  43 S5        30.15F
PETERSBURG*    CLOUDY    73  60  64 E3        30.14F
HANOVER        CLOUDY    71  57  61 CALM      30.15F
TAPPAHANNOCK*  SUNNY     73  48  40 CALM      30.15S
QUINTON*       CLOUDY    70  61  72 CALM      30.14S
CHARLOTTSVILLE CLOUDY    67  57  70 E3        30.15F
GORDONSVILLE*  CLOUDY    66  57  72 CALM      30.15
ORANGE*          N/A     66  55  68 CALM      30.17F
LOUISA*        CLOUDY    70  63  78 CALM      30.14F
BUMPASS*       CLOUDY    68  60  74 CALM      30.15S
FARMVILLE*     CLOUDY    73  62  68 CALM      30.12F
CREWE*         CLOUDY    70  62  75 CALM      30.13F
FORT PICKETT*  CLOUDY    70  61  73 E5        30.14F
CHASE CITY*    CLOUDY    71  65  80 CALM      30.13S
CLARKSVILLE*   CLOUDY    72  64  78 E3        30.12S
SOUTH HILL*    CLOUDY    69  62  78 CALM      30.19S
LAWRENCEVILLE* CLOUDY    70  58  66 CALM      30.13S
EMPORIA*       CLOUDY    70  59  68 N3        30.15S
$$

VAZ088>098-252200-
SOUTHEAST VIRGINIA

CITY           SKY/WX    TMP DP  RH WIND       PRES   REMARKS
NORFOLK        MOSUNNY   73  57  57 N6        30.13F
VIRGINIA BEACH MOSUNNY   70  52  52 E6        30.12F
NORFOLK NAVAL  PTSUNNY   74  57  55 NE6       30.14F
WEST POINT*    CLOUDY    71  56  60 NE3       30.16S
SALUDA*        MOCLDY    70  53  55 E6        30.14S
NEWPORT NEWS   CLOUDY    70  57  63 NE5       30.13F
LANGLEY AFB    MOSUNNY   71  55  55 NE8       30.12F
FORT EUSTIS    CLOUDY    74  55  51 E3        30.11F
WILLIAMSBURG*  SUNNY     72  61  68 CALM      30.14F
HR EXEC AP*    CLOUDY    73  57  56 NE5       30.14F
FRANKLIN*      CLOUDY    71  56  58 NE3       30.14S
US460-WAKEFLD  CLOUDY    71  59  65 E3        30.14S
$$

VAZ020-022-025-037-045-252200-
WEST CENTRAL AND SOUTHWEST VIRGINIA

CITY           SKY/WX    TMP DP  RH WIND       PRES   REMARKS
STAUNTON*      CLOUDY    65  58  79 S3        30.17S
WAYNESBORO*    CLOUDY    63  57  81 E9        30.15S
HOT SPRINGS VA HVY RAIN  58  58 100 S7        30.19S VSB<1/4
LYNCHBURG      CLOUDY    71  58  63 SE6       30.14F
DANVILLE       CLOUDY    71  65  81 CALM      30.13S
SOUTH BOSTON*  CLOUDY    71  65  80 CALM      30.13S
MARTINSVILLE   CLOUDY    69  65  86 E3        30.15F HAZE
ROANOKE        CLOUDY    69  64  84 SE9       30.14F
BLACKSBURG     MOSUNNY   74  66  77 E8        30.17S
DUBLIN*        PTSUNNY   78  65  64 SE5       30.14F
MARION*        PTSUNNY   80  66  62 CALM      30.16S
HILLSVILLE*    PTSUNNY   71  66  82 S6        30.16S
RICHLANDS*     FAIR      81  62  50 W6        30.14F
WISE*          PTSUNNY   82  50  32 NW5       30.16S
ABINGDON*      SUNNY     85  60  41 NW6       30.10F
$$

MDZ021>025-VAZ099-100-252200-
SOUTHERN MARYLAND AND THE DELMARVA PENINSULA

CITY           SKY/WX    TMP DP  RH WIND       PRES   REMARKS
PATUXENT RIVER PTSUNNY   71  44  37 NE5       30.14F
BAY BRIDGE APT SUNNY     68  46  45 MISG      30.15S
LEONARDTOWN    SUNNY     68  46  45 CALM      30.16F
DOVER          SUNNY     69  53  56 E6        30.13S
GEORGETOWN     SUNNY     71  46  40 NE8       30.14S
EASTON         MOSUNNY   72  46  40 NW9       30.18S
CAMBRIDGE      SUNNY     70  46  43 NW5       30.14R
SALISBURY      SUNNY     74  48  39 N6        30.13S
OCEAN CITY     SUNNY     70  51  51 E8        30.14S
WALLOPS ISLAND SUNNY     70  55  59 MISG      30.14S
ACCOMACK*      SUNNY     72  51  47 NW8       30.13S
$$

NCZ012>017-030>032-252200-
NORTH CENTRAL AND EASTERN NORTH CAROLINA

CITY           SKY/WX    TMP DP  RH WIND       PRES   REMARKS
ROANOKE RAPIDS CLOUDY    70  63  78 NE3       30.13S
RALEIGH        CLOUDY    72  67  84 E6        30.12S
ELIZABETH CITY PTSUNNY   73  56  54 NE12      30.13S
AHOSKIE*       SUNNY     71  61  71 CALM      30.13S
EDENTON*       CLOUDY    75  58  54 E5        30.12F
CURRITUCK*     MOSUNNY   73  55  52 NE10      30.14S
KILL DEVIL HLS NOT AVBL
MANTEO         MOSUNNY   72  56  58 NE10G17   30.13S
CAPE HATTERAS  MOSUNNY   73  58  59 NE9G18    30.10F
TARBORO*       CLOUDY    73  64  74 E3        30.13S
GOLDSBORO      CLOUDY    74  71  91 NE8       30.08F
WASHINGTON     PTSUNNY   72  62  72 NE7       30.12S
GREENVILLE     CLOUDY    72  61  68 NE10      30.13S
NEW BERN       CLOUDY    75  61  61 NE9       30.11F
WILMINGTON     CLOUDY    77  70  79 E13       30.07S
$$

VAZ048-252200-
ELSEWHERE

CITY           SKY/WX    TMP DP  RH WIND       PRES   REMARKS
HARRISBURG PA  MOSUNNY   71  46  40 CALM      30.13F
BALTIMORE      MOSUNNY   72  44  36 VRB3      30.13F
ANNAPOLIS      SUNNY     71  46  40 NE5       30.14F
ANDREWS AFB    SUNNY     70  49  46 S2        30.13F
PHILADELPHIA   MOSUNNY   72  39  30 NW7       30.13F
HENDERSON NC   PTSUNNY   69  62  76 E5        30.13S
GREENSBORO     CLOUDY    72  69  90 E7        30.11F
ROCKY MOUNT    CLOUDY    73  66  78 E6        30.11F
$$

VAZ100-252200-
MARINE

STATION/POSITION TIME  TEMP    WIND        PRES    WAVE   SWELL
                       AIR SEA DIR/SP/G            HT/PER HT/PER
                 (UTC) (F)     (DEG/KT/KT) (MB)    (FT/S) (FT/S)
BRANDYWINE LGT   2000   66     340/  4/  6   N/A
CAPE MAY NJ      2000   67 73  300/  5/  6 1020.4F
LEWES DE         2000   67 74  330/  2/  3 1020.6F
OCEAN-CITY-INLET 2000   68 73   90/  6/  9 1021.0F
WACHAPREAGUE VA  2000   69 76   70/  7/  9 1020.6F
THOMAS POINT MD  2100   68 75   50/  5/  6 1022.1F
GOOSES REEF MD   2100   70 76   40/  2/  6 1021.4F   0
COVE POINT MD    2000   67      10/  5/  7 1021.5F
SOLOMONS ISLAND  2000   69 77   60/  3/  7   N/A
BISHOPS HEAD MD  2000   70 73  260/  5/  6 1020.8F
PINEY POINT MD   2000          190/  4/  5   N/A
POTOMAC MD       2100   70 77   90/  4/  6 1019.9F   0
CAMBRIDGE MD     2000   69 75  320/  8/ 10 1019.8F
LEWISETTA VA     2000   70 75  180/  1/  2 1020.6F
RAPPAHANNOCK LGT 2000          350/  7/  9 1021.1F
STINGRAY PT      2100   70 77  330/  8/ 10 1021.0F   1/ 2
YORK RVR RNG VA  2000   70      60/ 10/ 12 1020.3F
YORKTOWN VA      2000   71 77   90/  9/ 12 1020.3F
JAMESTOWN VA     2100   71 78   50/  2/  4   N/A     0
DOMINION TERM VA 2000   73      70/  2/  5 1020.6F
KIPTOPEKE VA     2000      78   90/  4/  7   N/A
CHES BAY BRIDGE  2000   71 76   30/  2/  4 1020.4F
CAPE HENRY VA    2000   71      60/  7/  8   N/A
WILLOUBY STN VA  2000   70      20/  6/  7   N/A
CAPE HENRY BUOY  2012      76                N/A     4/11   2/11
1ST LANDING BUOY 2100   72 77  130/  4/  6 1020.1F   2/ 4
OFFSHORE WE BUOY 2051      76                N/A     4/11   2/11
64NM E OF VA BCH 2050   70 76   20/ 12/ 14 1019.5F   4/ 8   3/ 8
DUCK PIER NC     2000   70 77   30/ 12/ 14 1019.6F
44056 DUCK FRF   2011      77                N/A     4/11   2/11
OREGON INLET NC  2000   72 78   30/ 11/ 15 1019.7F
HATTERAS NC      2000   73 80   30/ 11/ 15 1019.1F
DIAMOND SHLS NC  2050   73 85   30/ 17/ 19 1018.3F   5/ 9   3/ 9
CAPE LOOKOUT NC  2100   74      40/ 19/ 21 1018.5F
$$




USA.gov is the U.S. government's official web portal to all federal, state and local government web resources and services.